Location: Newark
(13.6797°N, 8.5297°E)
Time: 04:38:24
(UTC+00:00)

A-11 Canister half - Pass Details

Date: 22 January 2020
Orbit: 1517 x 1683 km, 47.2° (Epoch: 16 February)

Event Time Altitude Azimuth Distance (km) Brightness Sun altitude
Rises 10:24:20 0° 277° (W) 4,750 11.4 52.1°
Reaches altitude 10° 10:32:24 10° 235° (SW) 3,821 11.3 53.0°
Maximum altitude 10:32:59 10° 232° (SW) 3,820 11.3 53.0°
Drops below altitude 10° 10:33:35 10° 228° (SW) 3,829 11.4 53.1°
Sets 10:41:56 0° 187° (S) 4,869 12.1 53.9°
